Regional Weather Roundup
Issued by NWS

Home | Current Version | Previous Version | Graphics & Text | Print | Product List | Glossary On
Versions: 1 2 3 4 5 6 7 8 9 10 11 12 13 14 15 16 17 18 19 20 21 22 23 24 25 26 27 28 29 30 31 32 33 34 35 36 37 38 39 40 41 42 43 44 45 46 47 48 49 50
000
ASUS43 KIND 251059
RWRIN

WEATHER ROUNDUP FOR INDIANA
NATIONAL WEATHER SERVICE INDIANAPOLIS IN
700 AM EDT WED APR 25 2018

NOTE: "FAIR" INDICATES FEW OR NO CLOUDS BELOW 12,000 FEET WITH NO
SIGNIFICANT WEATHER AND/OR OBSTRUCTIONS TO VISIBILITY.

* - STATION DOES NOT REPORT WEATHER SUCH AS PRECIPITATION OR FOG.

+ - STATION NOT QUALITY CONTROLLED BY THE NATIONAL WEATHER SERVICE.
    USE DATA WITH CAUTION...ESPECIALLY DEWPOINT AND RELATIVE
    HUMIDITY OBSERVATIONS.

INZ001>003-010>013-019-020-251200-
NORTHWEST INDIANA

CITY           SKY/WX    TMP DP  RH WIND       PRES   REMARKS
KNOX *+        CLOUDY    43  41  93 NW8       30.00R
MONTICELLO +   CLOUDY    44  42  95 NW10      29.99R FOG
RENSSELAER +   MOCLDY    41  36  81 NW8       30.03R

$$

LMZ046-743>745-251200-
SOUTHERN LAKE MICHIGAN

STATION/POSITION TIME  TEMP    WIND        PRES    WAVE
                       AIR SEA DIR/SP/G            HT
                 (UTC) (F)     (DEG/KT/KT) (MB)    (FT)
BURNS HARBOR     1040   41     360/  9/ 10 1018.3R
MICHIGAN CITY    1030   41     360/ 11/ 14   N/A

$$

INZ004-005-014>016-021>024-251200-
NORTH CENTRAL INDIANA

CITY           SKY/WX    TMP DP  RH WIND       PRES   REMARKS
ELKHART        CLOUDY    50  48  93 NW9       29.97
GOSHEN         MOCLDY    51  49  92 N6        29.96R
PERU/GRISSOM   FAIR      50  50 100 NW8       29.94S FOG
SOUTH BEND     CLOUDY    46  41  82 N8        29.99R
WARSAW +       FAIR      50  50 100 N7        29.95R

$$

INZ006>009-017-018-025>027-251200-
NORTHEAST INDIANA

CITY           SKY/WX    TMP DP  RH WIND       PRES   REMARKS
ANGOLA *+      CLOUDY    52  48  87 N12G18    29.93S
FORT WAYNE     CLOUDY    52  50  93 NW8       29.94R FOG

$$

INZ028-029-035-036-043>045-051>053-251200-
WEST CENTRAL INDIANA

CITY           SKY/WX    TMP DP  RH WIND       PRES   REMARKS
CRAWFORDSVL +  MOCLDY    45  45 100 NW8       29.99R FOG
GREENCASTLE +  MOCLDY    46  46 100 NW3       29.98R FOG
LAFAYETTE      CLOUDY    45  45 100 NW12      30.00R FOG
TERRE HAUTE    FAIR      48  48 100 NW7       30.00R FOG

$$

INZ030>032-037>040-046>048-054>057-064-065-251200-
CENTRAL INDIANA

CITY           SKY/WX    TMP DP  RH WIND       PRES   REMARKS
COLUMBUS       CLOUDY    52 N/A N/A NW6       29.94
GREENWOOD *+   CLOUDY    51  50  97 N6        29.95S
INDIANAPOLIS   CLOUDY    50  49  96 N8        29.95R FOG
-EAGLE CREEK   CLOUDY    51  48  89 N7        29.94S
KOKOMO +       MOCLDY    51  50  96 N8        29.95S FOG
MT COMFORT *+  CLOUDY    50  50 100 N8        29.94S
SHELBYVILLE    CLOUDY    53  50  89 N12       29.93R
ZIONSVILLE +   MOCLDY    48  48  99 N8        29.96R FOG

$$

INZ033-034-041-042-049-050-058-059-251200-
EAST CENTRAL INDIANA

CITY           SKY/WX    TMP DP  RH WIND       PRES   REMARKS
MUNCIE         CLOUDY    52  50  93 N7        29.93R
RICHMOND +     CLOUDY    48  48 100 N9G18     29.91S FOG

$$

INZ060-061-067>069-081>083-085>088-251200-
SOUTHWEST INDIANA

CITY           SKY/WX    TMP DP  RH WIND       PRES   REMARKS
EVANSVILLE     FOG       46  46 100 CALM      29.99R VSB 3/4
HUNTINGBURG +  FOG       48  48 100 W3        29.98R VSB 1/4

$$

INZ062-063-066-070>080-084-089>092-251200-
SOUTH CENTRAL AND SOUTHEAST INDIANA

CITY           SKY/WX    TMP DP  RH WIND       PRES   REMARKS
BLOOMINGTON    FAIR      49  48  97 N3        29.96R FOG
FRENCH LICK *+ CLOUDY    50 N/A N/A CALM      29.96R
SEYMOUR +      CLOUDY    54  50  87 N3        29.94R

$$





USA.gov is the U.S. government's official web portal to all federal, state and local government web resources and services.